Ravenna, OH

3:25 AM EST on January 24, 2018 (GMT -0500)
Ravenna

Weather History for KPOV - April, 2014

Change the Weather History Date:

Thursday, April 24, 2014

  Actual Average (KCAK) Record (KCAK)
Temperature  
Mean Temperature 43 °F -  
Max Temperature 57 °F 60 °F 88 °F (1925)
Min Temperature 29 °F 40 °F 27 °F (1930)
Degree Days  
Heating Degree Days 22    
Moisture  
Dew Point 21 °F    
Average Humidity 44    
Maximum Humidity 85    
Minimum Humidity 22    
Precipitation  
Precipitation 0.00 in - - ()
Sea Level Pressure  
Sea Level Pressure 30.08 in    
Wind  
Wind Speed 3 mph (ENE)    
Max Wind Speed 10 mph    
Max Gust Speed 9 mph    
Visibility 10 miles    
Events      
Averages and records for this station are not official NWS values.
T = Trace of Precipitation, MM = Missing Value Source: NWS Daily Summary

Daily Weather History Graph

Daily Weather History Graph

Search for Another Location

Airport or City:

Trip Planner

Search our weather history database for the weather conditions in past years. The results will help you decide how hot, cold, wet, or windy it might be!

Date:

Astronomy

Apr. 24, 2014 Rise Set
Actual Time 6:32 AM EDT 8:14 PM EDT
Civil Twilight 6:02 AM EDT 8:44 PM EDT
Nautical Twilight 5:27 AM EDT 9:19 PM EDT
Astronomical Twilight 4:49 AM EDT 9:58 PM EDT
Moon 3:45 AM EDT 3:25 PM EDT
Length of Visible Light 14h 41m
Length of Day
13h 42m
Waning Crescent, 24% of the Moon is Illuminated
Apr 24
Waning Crescent
Apr 29
New
May 6
First Quarter
May 14
Full
May 21
Last Quarter

Hourly Weather History & Observations

Time (EDT) Temp. Windchill Dew Point Humidity Pressure Visibility Wind Dir Wind Speed Gust Speed Precip Events Conditions
12:15 AM 36.0 °F 33.3 °F 25.7 °F 66% 30.11 in 10.0 mi WNW 3.5 mph - N/A   Clear
12:36 AM 34.5 °F 30.4 °F 25.5 °F 70% 30.11 in 10.0 mi WNW 4.6 mph - N/A   Clear
12:55 AM 34.5 °F 31.6 °F 25.2 °F 69% 30.11 in 10.0 mi NW 3.5 mph - N/A   Clear
1:16 AM 33.3 °F - 24.3 °F 70% 30.12 in 10.0 mi Calm Calm - N/A   Clear
1:36 AM 34.3 °F - 23.0 °F 63% 30.11 in 10.0 mi Calm Calm - N/A   Clear
1:56 AM 32.0 °F - 27.9 °F 85% 30.11 in 10.0 mi Calm Calm - N/A   Clear
2:15 AM 32.0 °F - 26.6 °F 80% 30.11 in 10.0 mi Calm Calm - N/A   Clear
2:36 AM 30.7 °F - 25.9 °F 82% 30.10 in 10.0 mi Calm Calm - N/A   Clear
2:55 AM 32.0 °F - 23.0 °F 69% 30.10 in 10.0 mi Calm Calm - N/A   Clear
3:16 AM 29.1 °F 24.1 °F 23.9 °F 81% 30.10 in 10.0 mi NE 4.6 mph - N/A   Clear
3:36 AM 32.0 °F 27.5 °F 18.1 °F 57% 30.09 in 10.0 mi NE 4.6 mph - N/A   Clear
3:55 AM 30.4 °F 26.9 °F 19.9 °F 65% 30.10 in 10.0 mi NE 3.5 mph - N/A   Clear
4:16 AM 32.7 °F - 16.0 °F 50% 30.10 in 10.0 mi Calm Calm - N/A   Clear
4:35 AM 32.0 °F 28.7 °F 16.9 °F 54% 30.11 in 10.0 mi NE 3.5 mph - N/A   Clear
4:56 AM 31.1 °F 27.7 °F 20.1 °F 64% 30.12 in 10.0 mi NE 3.5 mph - N/A   Clear
5:16 AM 31.3 °F - 19.6 °F 62% 30.13 in 10.0 mi Calm Calm - N/A   Clear
5:35 AM 32.9 °F - 20.1 °F 59% 30.13 in 10.0 mi Calm Calm - N/A   Clear
5:56 AM 32.0 °F - 22.5 °F 68% 30.13 in 10.0 mi Calm Calm - N/A   Clear
6:16 AM 32.0 °F - 22.1 °F 67% 30.14 in 10.0 mi Calm Calm - N/A   Clear
6:35 AM 32.0 °F - 25.7 °F 78% 30.14 in 10.0 mi Calm Calm - N/A   Scattered Clouds
6:56 AM 32.4 °F - 24.1 °F 72% 30.15 in 10.0 mi Calm Calm - N/A   Mostly Cloudy
7:16 AM 33.8 °F - 24.3 °F 68% 30.15 in 10.0 mi Calm Calm - N/A   Mostly Cloudy
7:36 AM 34.0 °F - 24.1 °F 67% 30.16 in 10.0 mi Calm Calm - N/A   Clear
7:55 AM 33.8 °F - 22.5 °F 63% 30.17 in 10.0 mi Calm Calm - N/A   Clear
8:16 AM 35.8 °F - 22.1 °F 58% 30.17 in 10.0 mi Calm Calm - N/A   Clear
8:35 AM 38.8 °F 36.5 °F 21.0 °F 49% 30.18 in 10.0 mi ENE 3.5 mph - N/A   Clear
8:56 AM 39.6 °F 37.4 °F 19.8 °F 45% 30.18 in 10.0 mi East 3.5 mph - N/A   Clear
9:15 AM 39.9 °F - 20.8 °F 47% 30.19 in 10.0 mi Calm Calm - N/A   Clear
9:36 AM 41.0 °F - 19.9 °F 43% 30.19 in 10.0 mi Calm Calm - N/A   Clear
9:55 AM 42.1 °F - 19.2 °F 40% 30.18 in 10.0 mi Calm Calm - N/A   Clear
10:16 AM 43.7 °F 42.1 °F 19.4 °F 38% 30.18 in 10.0 mi East 3.5 mph - N/A   Clear
10:36 AM 44.2 °F - 16.2 °F 32% 30.18 in 10.0 mi Calm Calm - N/A   Clear
10:55 AM 45.9 °F 43.6 °F 16.0 °F 30% 30.18 in 10.0 mi ENE 4.6 mph - N/A   Scattered Clouds
11:16 AM 46.6 °F - 15.1 °F 28% 30.17 in 10.0 mi East 3.5 mph - N/A   Mostly Cloudy
11:35 AM 48.2 °F - 15.6 °F 27% 30.17 in 10.0 mi East 5.8 mph - N/A   Mostly Cloudy
11:56 AM 48.9 °F - 17.4 °F 29% 30.16 in 10.0 mi ENE 9.2 mph - N/A   Mostly Cloudy
12:16 PM 50.0 °F - 17.1 °F 27% 30.15 in 10.0 mi ENE 6.9 mph - N/A   Overcast
12:35 PM 51.1 °F - 17.6 °F 27% 30.14 in 10.0 mi NE 10.4 mph - N/A   Overcast
12:55 PM 51.6 °F - 18.1 °F 27% 30.13 in 10.0 mi ENE 8.1 mph - N/A   Overcast
1:16 PM 52.2 °F - 18.7 °F 27% 30.12 in 10.0 mi ENE 6.9 mph - N/A   Overcast
1:35 PM 52.5 °F - 16.9 °F 25% 30.11 in 10.0 mi NE 6.9 mph - N/A   Mostly Cloudy
1:55 PM 53.2 °F - 18.7 °F 26% 30.10 in 10.0 mi East 3.5 mph - N/A   Scattered Clouds
2:15 PM 54.5 °F - 20.3 °F 26% 30.09 in 10.0 mi NE 3.5 mph - N/A   Clear
2:36 PM 54.3 °F - 18.7 °F 25% 30.09 in 10.0 mi East 4.6 mph - N/A   Clear
2:55 PM 54.7 °F - 18.5 °F 24% 30.07 in 10.0 mi SSE 4.6 mph - N/A   Clear
3:16 PM 55.6 °F - 18.1 °F 23% 30.06 in 10.0 mi ENE 5.8 mph 9.2 mph N/A   Clear
3:36 PM 57.0 °F - 23.4 °F 27% 30.04 in 10.0 mi East 8.1 mph - N/A   Clear
3:56 PM 55.0 °F - 20.3 °F 26% 30.03 in 10.0 mi NE 10.4 mph - N/A   Clear
4:16 PM 56.1 °F - 21.6 °F 26% 30.03 in 10.0 mi East 6.9 mph - N/A   Clear
4:35 PM 55.4 °F - 21.0 °F 26% 30.02 in 10.0 mi ENE 6.9 mph - N/A   Clear
4:55 PM 55.0 °F - 18.9 °F 24% 30.02 in 10.0 mi ENE 5.8 mph - N/A   Clear
5:16 PM 56.1 °F - 20.3 °F 25% 30.02 in 10.0 mi ENE 5.8 mph - N/A   Clear
5:36 PM 56.7 °F - 17.8 °F 22% 30.02 in 10.0 mi ENE 5.8 mph - N/A   Clear
5:55 PM 55.8 °F - 19.4 °F 24% 30.01 in 10.0 mi East 5.8 mph - N/A   Clear
6:16 PM 56.7 °F - 21.2 °F 25% 30.00 in 10.0 mi East 8.1 mph - N/A   Clear
6:35 PM 56.3 °F - 22.5 °F 27% 30.00 in 10.0 mi East 6.9 mph - N/A   Clear
6:56 PM 55.8 °F - 18.5 °F 23% 29.99 in 10.0 mi SE 6.9 mph - N/A   Clear
7:16 PM 55.4 °F - 20.5 °F 26% 29.99 in 10.0 mi ESE 4.6 mph - N/A   Clear
7:35 PM 53.8 °F - 20.8 °F 28% 29.98 in 10.0 mi ESE 3.5 mph - N/A   Clear
7:56 PM 51.8 °F - 21.7 °F 31% 29.98 in 10.0 mi ESE 3.5 mph - N/A   Clear
8:16 PM 52.0 °F - 21.4 °F 30% 29.98 in 10.0 mi Calm Calm - N/A   Clear
8:35 PM 52.0 °F - 21.6 °F 30% 29.98 in 10.0 mi Calm Calm - N/A   Clear
8:55 PM 51.6 °F - 22.5 °F 32% 29.98 in 10.0 mi East 3.5 mph - N/A   Clear
9:16 PM 50.9 °F - 22.8 °F 33% 29.98 in 10.0 mi East 4.6 mph - N/A   Scattered Clouds
9:36 PM 49.5 °F - 24.6 °F 38% 29.98 in 10.0 mi East 4.6 mph - N/A   Clear
9:55 PM 48.9 °F - 26.6 °F 42% 29.97 in 10.0 mi ENE 9.2 mph - N/A   Mostly Cloudy
10:16 PM 48.6 °F - 24.8 °F 39% 29.95 in 10.0 mi ENE 9.2 mph - N/A   Overcast
10:36 PM 47.7 °F - 25.0 °F 41% 29.94 in 10.0 mi East 9.2 mph - N/A   Scattered Clouds
10:56 PM 46.9 °F - 24.3 °F 41% 29.94 in 10.0 mi East 5.8 mph - N/A   Clear
11:16 PM 45.7 °F 42.0 °F 25.5 °F 45% 29.94 in 10.0 mi East 6.9 mph - N/A   Scattered Clouds
11:35 PM 45.7 °F 42.0 °F 25.2 °F 45% 29.92 in 10.0 mi East 6.9 mph - N/A   Scattered Clouds
11:55 PM 45.5 °F 41.8 °F 25.2 °F 45% 29.92 in 10.0 mi East 6.9 mph - N/A   Scattered Clouds